Regional Weather Roundup
Issued by NWS Upton, NY

Current Version | Previous Version | Text Only | Print | Product List | Glossary On
Versions: 1 2 3 4 5 6 7 8 9 10 11 12 13 14 15 16 17 18 19 20 21 22 23 24 25 26 27 28 29 30 31 32 33 34 35 36 37 38 39 40 41 42 43 44 45 46 47 48 49 50
000
ASUS41 KOKX 290604
RWROKX

REGIONAL WEATHER ROUNDUP
NATIONAL WEATHER SERVICE NEW YORK NY
200 AM EDT THU SEP 29 2016

NOTE: "FAIR" INDICATES FEW OR NO CLOUDS BELOW 12,000 FEET WITH NO
SIGNIFICANT WEATHER AND/OR OBSTRUCTIONS TO VISIBILITY.

NYZ071-072-176-178-NJZ106-104-290700-
NEW YORK CITY METRO AREA

CITY           SKY/WX    TMP DP  RH WIND       PRES   REMARKS
Central Park   CLOUDY    57  54  89 E9G20     30.29R
LaGuardia APRT CLOUDY    61  57  87 NE24G32   30.25S
Kennedy INTL   CLOUDY    60  56  86 NE16      30.26R
Newark/Liberty CLOUDY    58  55  90 NE14      30.26R
Bronx Bot Gard   N/A     55  52  88 N3        30.29R
Wall St Helipt CLOUDY    61  59  94 NE21G29   30.25R
Teterboro      DRIZZLE   58  53  84 NE8       30.26R
$$

NYZ177-179-078>081-290700-
LONG ISLAND NEW YORK

CITY           SKY/WX    TMP DP  RH WIND       PRES   REMARKS
Farmingdale    CLOUDY    60  57  89 NE9       30.26R
MacArthur/ISP  LGT RAIN  59  58  96 NE12      30.26R FOG
Shirley        CLOUDY    59  57  93 N7        30.28R
Riverhead      NOT AVBL
Westhampton    CLOUDY    60  56  86 NE15G30   30.28R
Southampton      N/A     61  57  88 NE10      30.23R
Bridgehampton    N/A     59  57  94 E6        30.12R
East Hampton   CLOUDY    59  57  92 NE13G23   30.25F
Montauk          N/A     61  58  90 NE13G24   30.28S
$$

NYZ052-065-067-290700-
HUDSON VALLEY

CITY           SKY/WX    TMP DP  RH WIND       PRES   REMARKS
White Plains   DRIZZLE   55  52  89 E12       30.28R
Newburgh       NOT AVBL
Montgomery     CLOUDY    56  51  84 NE8       30.30R
Poughkeepsie   CLOUDY    57  50  77 N5        30.30R
Albany         CLOUDY    50  46  86 N3        30.35S
$$

NJZ001-105-106-008-010-013-015-019>022-104-290700-
NEW JERSEY

CITY           SKY/WX    TMP DP  RH WIND       PRES   REMARKS
Newark/Liberty CLOUDY    58  55  90 NE14      30.26R
Teterboro      DRIZZLE   58  53  84 NE8       30.26R
Caldwell       CLOUDY    56  54  93 NE12      30.27R FOG
Morristown     CLOUDY    55  54  94 NE12G18   30.26S
Somerville     CLOUDY    58  53  84 VRB7      30.24R
Linden         NOT AVBL
Sussex         CLOUDY    54  53  97 NE10      30.28R
Abdover          N/A     54  52  93 VRB5      30.26R
Trenton        LGT RAIN  59  56  89 E12       30.22R
Millville      LGT RAIN  65  65 100 E13       30.15S
Atlantic City  LGT RAIN  66  63  90 NE20      30.15F
Wrightstown    LGT RAIN  60  59  96 NE12      30.18R FOG
Toms River     LGT RAIN  63  62  97 E14G20    30.20S FOG
Belmar         CLOUDY    61  60  97 NE14G29   30.23R
$$

PAZ047>061-062-071-290700-
EASTERN PENNSYLVANIA

CITY           SKY/WX    TMP DP  RH WIND       PRES   REMARKS
Philadelphia   LGT RAIN  61  59  93 NE13      30.20S FOG
Allentown      CLOUDY    59  52  77 E20G25    30.23R
Scranton       CLOUDY    56  51  84 NE12G23   30.22F
$$

CTZ002-004>006-009-010-012-RIZ004-006-007-MAZ004-011-015-290700-
SOUTHERN NEW ENGLAND
 IN CT

CITY           SKY/WX    TMP DP  RH WIND       PRES   REMARKS
Bradley INTL   CLOUDY    55  48  77 N9        30.34S
Hartford       CLOUDY    58  50  75 N8        30.32S
Danbury        CLOUDY    55  50  83 NE13      30.31R
Wtrbury/Oxford   N/A     55  46  71 NE13G20   30.31R
Bridgeport     CLOUDY    60  52  74 NE14      30.30R
Meriden        CLOUDY    59  50  72 NE14G21   30.31R
New Haven      CLOUDY    59  52  77 NE10      30.29R
Chester        CLOUDY    57  52  82 NE10G17   30.29S
Groton         CLOUDY    61  54  77 NE14G21   30.27F
Wilimantic     CLOUDY    58  51  78 NE13      30.32F

 IN RI

CITY           SKY/WX    TMP DP  RH WIND       PRES   REMARKS
Providence     CLOUDY    59  53  80 NE14G25   30.31F
Block Island   CLOUDY    60  58  92 NE18G28   30.27S
Westerly       CLOUDY    60  53  77 NE8G21    30.29S
 IN MA

CITY           SKY/WX    TMP DP  RH WIND       PRES   REMARKS
Boston         CLOUDY    58  51  78 NE20G29   30.35S
Worcester      CLOUDY    52  47  83 NE12G24   30.34F
Westfield      MOCLDY    55  49  80 N6        30.35F
Provincetown   CLOUDY    60  55  83 NE21G29   30.32R
Nantucket      CLOUDY    60  57  89 NE20G30   30.25S
$$

ANZ330-335-338-340-345-350-353-355-290700-
COASTAL MARINE OBSERVATIONS


STATION/POSITION TIME  SKY/WX   TEMP    WIND        PRES    VSBY  WAVE
                                AIR SEA DIR/SP/G                  HT/PER
                 (UTC)          (F)     (DEG/KT/KT) (MB)    (MI)  (FT/S)
NY HARB ENTRANCE 0450            63 70   60/ 25/ 29 1022.4          7/ 8
20S FIRE ISLAND  0450            64 69   60/ 25/ 31 1022.1         10/ 8
GREAT SOUTH BAY  0530            62 67   30/ 17/ 21   N/A
23 SSW MONTAUK P 0450            63 67   60/ 25/ 31 1023.7          8/ 7
15 E BARNEGAT LI 0530               70                N/A          10/ 8
HUDSON CANYON    0450            67 68              1021.2          8/ 8
KINGS POINT      0530            59 71              1024.4
EXECUTION ROCKS  0545            62      50/ 19/ 25   N/A
CENTRAL LI SOUND 0530            62 71   50/ 21/ 25   N/A           3/ 4
EASTERN LI SOUND NOT AVBL
ROBBINS REEF     0530            60      50/ 22/ 25 1023.9
$$


>>>>>>>>>>>>>>>>>>>>>>>>>>>> KEY <<<<<<<<<<<<<<<<<<<<<<<<<<<
>                                                          <
>     SKY/WX - Sky Condition/Present Weather               <
>     TMP    - Temperature in Fahrenheit                   <
>     DP     - Dew Point in Fahrenheit                     <
>     RH     - Relative Humidity in Percent                <
>     WIND   - Direction (from) and Speed in MPH           <
>     PRES   - Mean Sea Level Pressure (inches of Hg)      <
>     WCI    - Wind Chill Index                            <
>     VSB    - VISIBILITY IN MILES                         <
>     HX     - HEAT INDEX                                  <
>     TC     - TEMPERATURE IN CELSIUS                      <
>     VRB    - VARIABLE WIND DIRECTION                     <
>                                                          <
>>>>>>>>>>>>>>>>>>>>>>>>>>>> KEY <<<<<<<<<<<<<<<<<<<<<<<<<<<



USA.gov is the U.S. government's official web portal to all federal, state and local government web resources and services.